GW1213 Weather Reports


time (UTC)temp
C
wind
direction
speed
KPH
gust
KPH
rain 1hr
cm
rain 24hr
cm
rain mn
cm
humidity
%
barometer
mb
20260503221038 17 270 0.0 4.8 0.00 0.00 0.00 29 1014.0
20260503220537 17 267 0.0 9.7 0.00 0.00 0.00 30 1014.0
20260503220051 17 0 3.2 9.7 0.00 0.00 0.00 30 1014.0
20260503215536 17 266 1.6 11.3 0.00 0.00 0.00 29 1014.0
20260503215037 17 0 0.0 11.3 0.00 0.00 0.00 31 1014.0
20260503214547 17 267 0.0 12.9 0.00 0.00 0.00 29 1014.0
20260503214040 17 258 3.2 12.9 0.00 0.00 0.00 29 1014.1
20260503213539 17 279 1.6 12.9 0.00 0.00 0.00 29 1014.1
20260503213100 17 138 3.2 11.3 0.00 0.00 0.00 29 1014.0
20260503212538 17 219 0.0 11.3 0.00 0.00 0.00 30 1014.2
20260503212038 17 259 3.2 11.3 0.00 0.00 0.00 29 1014.1
20260503211546 17 292 0.0 6.4 0.00 0.00 0.00 32 1014.1
20260503211037 18 0 0.0 3.2 0.00 0.00 0.00 30 1014.1
20260503210540 18 0 0.0 6.4 0.00 0.00 0.00 28 1014.1
20260503210055 18 281 1.6 6.4 0.00 0.00 0.00 28 1014.1
20260503205537 18 15 1.6 6.4 0.00 0.00 0.00 31 1014.1
20260503205038 18 15 1.6 9.7 0.00 0.00 0.00 31 1014.1
20260503204553 18 0 1.6 9.7 0.00 0.00 0.00 29 1014.1
20260503204037 18 244 1.6 6.4 0.00 0.00 0.00 28 1014.2
20260503203537 18 352 0.0 11.3 0.00 0.00 0.00 31 1014.2
20260503203050 18 0 3.2 11.3 0.00 0.00 0.00 28 1014.3
20260503202538 18 167 0.0 11.3 0.00 0.00 0.00 28 1014.3
20260503202037 18 178 4.8 11.3 0.00 0.00 0.00 27 1014.4
20260503201548 18 217 1.6 11.3 0.00 0.00 0.00 28 1014.4
20260503201039 18 270 1.6 11.3 0.00 0.00 0.00 28 1014.5
20260503200537 18 0 0.0 8.0 0.00 0.00 0.00 27 1014.6
20260503200100 18 0 1.6 8.0 0.00 0.00 0.00 32 1014.7
20260503195538 18 0 3.2 9.7 0.00 0.00 0.00 28 1014.8
20260503195038 17 269 1.6 9.7 0.00 0.00 0.00 30 1014.9
20260503194551 17 264 1.6 6.4 0.00 0.00 0.00 32 1015.1
20260503194037 17 0 0.0 6.4 0.00 0.00 0.00 33 1015.1
20260503193539 17 79 0.0 11.3 0.00 0.00 0.00 31 1015.1
20260503193052 17 0 1.6 11.3 0.00 0.00 0.00 30 1015.2
20260503192538 17 152 3.2 11.3 0.00 0.00 0.00 30 1015.3
20260503192039 16 254 3.2 11.3 0.00 0.00 0.00 30 1015.4
20260503191608 16 254 3.2 11.3 0.00 0.00 0.00 30 1015.5
20260503191038 17 206 1.6 9.7 0.00 0.00 0.00 34 1015.4
20260503190536 17 288 1.6 9.7 0.00 0.00 0.00 33 1015.4
20260503190051 17 0 3.2 9.7 0.00 0.00 0.00 31 1015.6
20260503185542 17 261 0.0 9.7 0.00 0.00 0.00 33 1015.6
20260503185038 17 289 1.6 9.7 0.00 0.00 0.00 36 1015.8
20260503184556 17 344 1.6 6.4 0.00 0.00 0.00 34 1015.7
20260503184041 16 355 1.6 6.4 0.00 0.00 0.00 33 1015.8
20260503183538 16 275 1.6 6.4 0.00 0.00 0.00 31 1016.0
20260503183114 16 317 1.6 6.4 0.00 0.00 0.00 34 1016.0
20260503182536 16 360 1.6 6.4 0.00 0.00 0.00 31 1016.0
20260503182036 16 5 1.6 6.4 0.00 0.00 0.00 36 1016.0
20260503181551 16 293 3.2 6.4 0.00 0.00 0.00 30 1016.0
20260503181038 16 295 3.2 9.7 0.00 0.00 0.00 31 1016.1
20260503180542 16 0 3.2 12.9 0.00 0.00 0.00 34 1016.1
20260503180052 16 273 4.8 12.9 0.00 0.00 0.00 30 1016.2
20260503175537 16 0 0.0 11.3 0.00 0.00 0.00 31 1016.1
20260503175041 16 278 3.2 11.3 0.00 0.00 0.00 32 1016.2
20260503174549 16 339 1.6 14.5 0.00 0.00 0.00 33 1016.2
20260503174038 16 272 3.2 14.5 0.00 0.00 0.00 33 1016.1
20260503173537 15 207 3.2 11.3 0.00 0.00 0.00 33 1016.2
20260503173113 15 232 3.2 14.5 0.00 0.00 0.00 31 1016.4
20260503172537 15 226 1.6 14.5 0.00 0.00 0.00 35 1016.4
20260503172044 15 292 1.6 6.4 0.00 0.00 0.00 33 1016.4
20260503171550 15 297 1.6 12.9 0.00 0.00 0.00 35 1016.5
20260503171038 15 350 1.6 12.9 0.00 0.00 0.00 40 1016.5
20260503170537 15 209 3.2 11.3 0.00 0.00 0.00 33 1016.5
20260503150534 12 349 3.2 8.0 0.00 0.00 0.00 42 1017.3
20260503131033 10 290 3.2 16.1 0.00 0.00 0.00 52 1017.5
20260503130536 10 341 3.2 16.1 0.00 0.00 0.00 57 1017.6
20260503110534 6 0 0.0 0.0 0.00 0.00 0.00 71 1016.5
20260503081551 6 0 0.0 0.0 0.00 0.00 0.00 63 1014.8
20260503081035 6 0 0.0 0.0 0.00 0.00 0.00 63 1014.7
20260503080540 7 0 0.0 0.0 0.00 0.00 0.00 63 1014.6
20260503072538 7 0 0.0 0.0 0.00 0.00 0.00 58 1014.5
20260503072036 8 0 0.0 0.0 0.00 0.00 0.00 57 1014.4
20260503071550 8 0 0.0 0.0 0.00 0.00 0.00 57 1014.2
20260503071039 8 0 0.0 0.0 0.00 0.00 0.00 57 1014.2
20260503070538 8 0 0.0 3.2 0.00 0.00 0.00 56 1014.1
20260503055037 9 0 0.0 3.2 0.00 0.00 0.00 55 1013.7
20260503054550 9 0 0.0 1.6 0.00 0.00 0.00 54 1013.7
20260503054036 9 0 0.0 1.6 0.00 0.00 0.00 55 1013.7
20260503053538 10 0 0.0 1.6 0.00 0.00 0.00 55 1013.7
20260503053052 10 0 0.0 0.0 0.00 0.00 0.00 54 1013.7
20260503052535 10 0 0.0 0.0 0.00 0.00 0.00 53 1013.7
20260503052036 10 0 0.0 4.8 0.00 0.00 0.00 56 1013.8
20260503051550 10 0 0.0 4.8 0.00 0.00 0.00 55 1013.7
20260503051034 10 311 1.6 6.4 0.00 0.00 0.00 53 1013.7
20260503050537 10 351 1.6 8.0 0.00 0.00 0.00 52 1013.7
20260503050048 10 318 1.6 8.0 0.00 0.00 0.00 54 1013.5
20260503045542 10 355 1.6 8.0 0.00 0.00 0.00 54 1013.6
20260503045040 10 5 1.6 8.0 0.00 0.00 0.00 52 1013.7
20260503044548 10 0 1.6 8.0 0.00 0.00 0.00 51 1013.7
20260503044034 11 352 1.6 9.7 0.00 0.00 0.00 50 1013.7
20260503043534 11 336 3.2 9.7 0.00 0.00 0.00 50 1013.6
20260503043048 11 329 1.6 12.9 0.00 0.00 0.00 51 1013.6
20260503042534 11 309 3.2 16.1 0.00 0.00 0.00 51 1013.5
20260503042035 11 337 3.2 16.1 0.00 0.00 0.00 50 1013.4
20260503041556 11 311 4.8 16.1 0.00 0.00 0.00 50 1013.5
20260503041035 11 352 0.0 3.2 0.00 0.00 0.00 54 1013.3
20260503040534 11 0 0.0 3.2 0.00 0.00 0.00 55 1013.4
20260503040057 11 0 0.0 3.2 0.00 0.00 0.00 53 1013.4
20260503035537 11 330 0.0 4.8 0.00 0.00 0.00 53 1013.4
20260503035037 11 0 1.6 4.8 0.00 0.00 0.00 53 1013.3
20260503034605 11 332 1.6 4.8 0.00 0.00 0.00 53 1013.2
20260503034035 11 0 0.0 3.2 0.00 0.00 0.00 53 1013.3
20260503033536 11 0 0.0 3.2 0.00 0.00 0.00 52 1013.1
20260503033052 11 0 0.0 3.2 0.00 0.00 0.00 53 1013.1
20260503032534 11 0 0.0 3.2 0.00 0.00 0.00 53 1013.0
20260503032034 11 0 0.0 3.2 0.00 0.00 0.00 53 1012.8
20260503031547 11 0 0.0 1.6 0.00 0.00 0.00 53 1012.7
20260503031035 11 0 0.0 1.6 0.00 0.00 0.00 53 1012.7
20260503030534 11 0 0.0 3.2 0.00 0.00 0.00 54 1012.7
20260503030053 11 0 0.0 3.2 0.00 0.00 0.00 55 1012.7
20260503025534 11 0 0.0 3.2 0.00 0.00 0.00 54 1012.7
20260503025034 11 0 0.0 3.2 0.00 0.00 0.00 54 1012.7
20260503024551 11 0 0.0 3.2 0.00 0.00 0.00 53 1012.8
20260503024036 11 336 0.0 0.0 0.00 0.00 0.00 53 1012.8
20260503023535 11 0 0.0 3.2 0.00 0.00 0.00 52 1012.8
20260503023049 12 0 0.0 3.2 0.00 0.00 0.00 52 1012.8
20260503022535 12 0 0.0 3.2 0.00 0.00 0.00 52 1012.8
20260503022036 12 0 0.0 0.0 0.00 0.00 0.00 52 1012.8
20260503021548 12 0 0.0 0.0 0.00 0.00 0.00 52 1012.7
20260503021035 12 0 0.0 1.6 0.00 0.00 0.00 51 1012.7
20260503020536 12 0 0.0 1.6 0.00 0.00 0.00 51 1012.7
20260503020048 12 0 0.0 0.0 0.00 0.00 0.00 52 1012.7
20260503015535 12 0 0.0 0.0 0.00 0.00 0.00 52 1012.7
20260503015034 12 0 0.0 0.0 0.00 0.00 0.00 51 1012.6
20260503014549 12 0 0.0 0.0 0.00 0.00 0.00 51 1012.7
20260503014037 12 0 0.0 0.0 0.00 0.00 0.00 54 1012.7
20260503013538 12 0 0.0 0.0 0.00 0.00 0.00 53 1012.5
20260503013055 12 0 0.0 0.0 0.00 0.00 0.00 52 1012.6
20260503012537 12 0 0.0 0.0 0.00 0.00 0.00 52 1012.5
20260503012038 12 0 0.0 0.0 0.00 0.00 0.00 52 1012.5
20260503011550 12 0 0.0 0.0 0.00 0.00 0.00 50 1012.4
20260503011038 12 0 0.0 0.0 0.00 0.00 0.00 51 1012.4
20260503010540 12 0 0.0 0.0 0.00 0.00 0.00 52 1012.3
20260503010055 12 0 0.0 0.0 0.00 0.00 0.00 52 1012.2
20260503005539 12 0 0.0 0.0 0.00 0.00 0.00 51 1012.2
20260503005040 12 0 0.0 0.0 0.00 0.00 0.00 51 1012.2
20260503004548 12 0 0.0 0.0 0.00 0.00 0.00 50 1012.1
20260503004037 13 0 0.0 0.0 0.00 0.00 0.00 48 1012.0
20260503003538 13 0 0.0 0.0 0.00 0.00 0.00 49 1012.0
20260503003050 13 0 0.0 0.0 0.00 0.00 0.00 49 1012.0
20260503002537 13 0 0.0 0.0 0.00 0.00 0.00 46 1011.9
20260503002038 13 0 0.0 0.0 0.00 0.00 0.00 46 1011.8
20260503001547 13 0 0.0 0.0 0.00 0.00 0.00 44 1011.7
20260503001039 13 0 0.0 1.6 0.00 0.00 0.00 45 1011.7
20260503000538 13 0 0.0 1.6 0.00 0.00 0.00 47 1011.6
20260503000046 13 0 0.0 1.6 0.00 0.00 0.00 47 1011.6
20260502235538 13 0 0.0 1.6 0.00 0.00 0.00 44 1011.5
20260502235037 13 0 0.0 3.2 0.00 0.00 0.00 45 1011.5
20260502234551 13 0 0.0 3.2 0.00 0.00 0.00 46 1011.4
20260502234038 13 0 0.0 0.0 0.00 0.00 0.00 45 1011.3
20260502233539 14 0 0.0 0.0 0.00 0.00 0.00 43 1011.2
20260502233050 14 0 0.0 0.0 0.00 0.00 0.00 43 1011.1
20260502232535 14 0 0.0 3.2 0.00 0.00 0.00 43 1011.1
20260502232039 14 0 0.0 3.2 0.00 0.00 0.00 41 1011.0
20260502231602 14 329 1.6 3.2 0.00 0.00 0.00 43 1011.0
20260502231039 14 333 0.0 3.2 0.00 0.00 0.00 45 1011.0
20260502230538 14 294 1.6 3.2 0.00 0.00 0.00 44 1010.9
20260502230048 14 51 0.0 6.4 0.00 0.00 0.00 43 1010.9
20260502225538 14 0 0.0 6.4 0.00 0.00 0.00 43 1010.8
20260502225037 14 24 1.6 6.4 0.00 0.00 0.00 42 1010.7
20260502224547 14 306 1.6 6.4 0.00 0.00 0.00 43 1010.8
20260502224037 14 0 0.0 6.4 0.00 0.00 0.00 44 1010.8
20260502223537 14 315 0.0 6.4 0.00 0.00 0.00 43 1010.9
20260502223047 14 352 1.6 6.4 0.00 0.00 0.00 42 1010.9
20260502222536 14 23 0.0 1.6 0.00 0.00 0.00 44 1010.9
20260502222037 14 0 0.0 9.7 0.00 0.00 0.00 43 1011.0
20260502221549 14 0 1.6 9.7 0.00 0.00 0.00 42 1010.9